Hourly Weather Lincoln

Today, 15 June, Tuesday

Time Temperature Precipitation Wind Pressure Humidity
00:00 +24°C° 0 mm 3 mps 730 mmHg 82%
01:00 +24°C° 0.2 mm 3 mps 730 mmHg 83%
02:00 +22°C° 0.2 mm 3 mps 730 mmHg 83%
03:00 +22°C° 0.2 mm 3 mps 730 mmHg 84%
04:00 +21°C° 0.4 mm 3 mps 730 mmHg 85%
05:00 +21°C° 0.4 mm 3 mps 730 mmHg 86%
06:00 +21°C° 0.4 mm 2 mps 731 mmHg 88%
07:00 +24°C° 0.1 mm 3 mps 731 mmHg 81%
08:00 +26°C° 0.1 mm 3 mps 731 mmHg 75%
09:00 +28°C° 0.1 mm 4 mps 731 mmHg 69%
10:00 +29°C° 0 mm 3 mps 731 mmHg 64%
11:00 +30°C° 0 mm 3 mps 731 mmHg 59%
12:00 +33°C° 0 mm 3 mps 731 mmHg 54%
13:00 +33°C° 0 mm 3 mps 731 mmHg 53%
14:00 +34°C° 0 mm 3 mps 731 mmHg 51%
15:00 +34°C° 0 mm 3 mps 730 mmHg 50%
16:00 +34°C° 0 mm 3 mps 730 mmHg 52%
17:00 +33°C° 0 mm 3 mps 730 mmHg 55%
18:00 +33°C° 0 mm 3 mps 730 mmHg 58%
19:00 +30°C° 0.1 mm 3 mps 730 mmHg 65%
20:00 +28°C° 0.1 mm 3 mps 730 mmHg 72%
21:00 +25°C° 0.1 mm 3 mps 730 mmHg 79%
22:00 +25°C° 0 mm 3 mps 730 mmHg 81%
23:00 +24°C° 0 mm 3 mps 730 mmHg 83%

Tomorrow, 16 June, Wednesday

Time Temperature Precipitation Wind Pressure Humidity
00:00 +24°C° 0 mm 3 mps 730 mmHg 85%
01:00 +22°C° 0 mm 3 mps 729 mmHg 86%
02:00 +22°C° 0 mm 3 mps 729 mmHg 87%
03:00 +22°C° 0 mm 3 mps 729 mmHg 88%
04:00 +22°C° 0 mm 3 mps 729 mmHg 88%
05:00 +22°C° 0 mm 3 mps 729 mmHg 89%
06:00 +22°C° 0 mm 3 mps 729 mmHg 89%
07:00 +25°C° 0 mm 4 mps 729 mmHg 81%
08:00 +27°C° 0 mm 4 mps 729 mmHg 73%
09:00 +29°C° 0 mm 5 mps 729 mmHg 65%
10:00 +32°C° 0 mm 5 mps 729 mmHg 59%
11:00 +33°C° 0 mm 6 mps 729 mmHg 53%
12:00 +35°C° 0 mm 6 mps 728 mmHg 47%
13:00 +35°C° 0 mm 6 mps 728 mmHg 46%
14:00 +36°C° 0 mm 6 mps 728 mmHg 44%
15:00 +36°C° 0 mm 7 mps 727 mmHg 43%
16:00 +36°C° 0 mm 6 mps 727 mmHg 47%
17:00 +35°C° 0 mm 6 mps 726 mmHg 51%
18:00 +34°C° 0 mm 5 mps 726 mmHg 54%
19:00 +33°C° 0 mm 5 mps 726 mmHg 59%
20:00 +30°C° 0 mm 6 mps 726 mmHg 64%
21:00 +29°C° 0 mm 6 mps 726 mmHg 69%
22:00 +28°C° 0 mm 6 mps 726 mmHg 70%
23:00 +28°C° 0 mm 6 mps 726 mmHg 70%

Day after tomorrow, 17 June, Thursday

Time Temperature Precipitation Wind Pressure Humidity
00:00 +28°C° 0 mm 6 mps 726 mmHg 71%
01:00 +27°C° 0 mm 5 mps 726 mmHg 73%
02:00 +26°C° 0 mm 5 mps 725 mmHg 75%
03:00 +26°C° 0 mm 5 mps 725 mmHg 77%
04:00 +26°C° 0 mm 5 mps 725 mmHg 77%
05:00 +25°C° 0 mm 5 mps 724 mmHg 77%
06:00 +25°C° 0 mm 4 mps 724 mmHg 77%
07:00 +27°C° 0 mm 5 mps 724 mmHg 69%
08:00 +29°C° 0 mm 5 mps 725 mmHg 61%
09:00 +32°C° 0 mm 5 mps 725 mmHg 53%
10:00 +34°C° 0 mm 6 mps 725 mmHg 47%
11:00 +36°C° 0 mm 6 mps 724 mmHg 42%
12:00 +39°C° 0 mm 6 mps 724 mmHg 36%
13:00 +39°C° 0 mm 6 mps 724 mmHg 34%
14:00 +40°C° 0 mm 6 mps 723 mmHg 32%
15:00 +41°C° 0 mm 6 mps 723 mmHg 30%
16:00 +40°C° 0 mm 5 mps 723 mmHg 35%
17:00 +38°C° 0 mm 4 mps 722 mmHg 41%
18:00 +38°C° 0 mm 3 mps 722 mmHg 46%
19:00 +35°C° 0 mm 3 mps 722 mmHg 52%
20:00 +33°C° 0 mm 3 mps 722 mmHg 58%
21:00 +30°C° 0 mm 3 mps 723 mmHg 64%
22:00 +29°C° 0 mm 3 mps 723 mmHg 70%
23:00 +28°C° 0 mm 3 mps 723 mmHg 76%

18 June, Friday

Time Temperature Precipitation Wind Pressure Humidity
00:00 +27°C° 0 mm 4 mps 724 mmHg 83%
01:00 +26°C° 0.6 mm 3 mps 724 mmHg 84%
02:00 +26°C° 0.6 mm 3 mps 724 mmHg 85%
03:00 +25°C° 0.6 mm 3 mps 724 mmHg 86%
04:00 +25°C° 0 mm 2 mps 724 mmHg 85%
05:00 +25°C° 0 mm 2 mps 724 mmHg 84%
06:00 +25°C° 0 mm 1 mps 724 mmHg 84%
07:00 +26°C° 0 mm 2 mps 725 mmHg 75%
08:00 +28°C° 0 mm 3 mps 725 mmHg 66%
09:00 +30°C° 0 mm 4 mps 725 mmHg 57%
10:00 +32°C° 0.1 mm 4 mps 725 mmHg 54%
11:00 +32°C° 0.1 mm 5 mps 726 mmHg 50%
12:00 +33°C° 0.1 mm 5 mps 726 mmHg 47%
13:00 +33°C° 0.1 mm 5 mps 726 mmHg 47%
14:00 +33°C° 0.1 mm 6 mps 726 mmHg 48%
15:00 +33°C° 0.1 mm 6 mps 726 mmHg 48%
16:00 +30°C° 0.2 mm 5 mps 726 mmHg 53%
17:00 +29°C° 0.2 mm 4 mps 726 mmHg 57%
18:00 +28°C° 0.2 mm 3 mps 726 mmHg 61%
19:00 +27°C° 0 mm 3 mps 726 mmHg 63%
20:00 +26°C° 0 mm 3 mps 726 mmHg 65%
21:00 +24°C° 0 mm 3 mps 726 mmHg 67%
22:00 +24°C° 0 mm 2 mps 726 mmHg 64%
23:00 +23°C° 0 mm 2 mps 726 mmHg 61%

19 June, Saturday

Time Temperature Precipitation Wind Pressure Humidity
00:00 +23°C° 0 mm 1 mps 726 mmHg 59%
01:00 +21°C° 0 mm 2 mps 726 mmHg 59%
02:00 +21°C° 0 mm 2 mps 726 mmHg 59%
03:00 +20°C° 0 mm 2 mps 726 mmHg 59%
04:00 +19°C° 0 mm 2 mps 726 mmHg 64%
05:00 +18°C° 0 mm 3 mps 727 mmHg 70%
06:00 +17°C° 0 mm 3 mps 727 mmHg 76%
07:00 +19°C° 0 mm 3 mps 727 mmHg 71%
08:00 +21°C° 0 mm 4 mps 727 mmHg 66%
09:00 +22°C° 0 mm 4 mps 727 mmHg 60%
10:00 +25°C° 0 mm 4 mps 727 mmHg 56%
11:00 +27°C° 0 mm 4 mps 727 mmHg 52%
12:00 +28°C° 0 mm 4 mps 726 mmHg 48%
13:00 +29°C° 0 mm 3 mps 726 mmHg 47%
14:00 +29°C° 0 mm 3 mps 726 mmHg 46%
15:00 +30°C° 0 mm 3 mps 726 mmHg 45%
16:00 +29°C° 0 mm 3 mps 725 mmHg 48%
17:00 +29°C° 0 mm 3 mps 725 mmHg 51%
18:00 +29°C° 0 mm 4 mps 724 mmHg 54%
19:00 +28°C° 0 mm 4 mps 724 mmHg 58%
20:00 +27°C° 0 mm 4 mps 723 mmHg 62%
21:00 +25°C° 0 mm 4 mps 722 mmHg 67%
22:00 +25°C° 0.8 mm 4 mps 722 mmHg 74%
23:00 +24°C° 0.8 mm 3 mps 722 mmHg 81%

20 June, Sunday

Time Temperature Precipitation Wind Pressure Humidity
00:00 +22°C° 0.8 mm 3 mps 722 mmHg 88%
01:00 +22°C° 1.8 mm 3 mps 722 mmHg 89%
02:00 +22°C° 1.8 mm 3 mps 722 mmHg 90%
03:00 +22°C° 1.8 mm 4 mps 721 mmHg 91%
04:00 +21°C° 0 mm 4 mps 721 mmHg 91%
05:00 +21°C° 0 mm 4 mps 721 mmHg 91%
06:00 +21°C° 0 mm 5 mps 721 mmHg 91%
07:00 +22°C° 0 mm 5 mps 721 mmHg 84%
08:00 +25°C° 0 mm 4 mps 721 mmHg 78%
09:00 +27°C° 0 mm 4 mps 721 mmHg 71%
10:00 +27°C° 0.1 mm 5 mps 721 mmHg 68%
11:00 +28°C° 0.1 mm 6 mps 721 mmHg 65%
12:00 +29°C° 0.1 mm 7 mps 722 mmHg 61%
13:00 +29°C° 0.2 mm 7 mps 722 mmHg 56%
14:00 +29°C° 0.2 mm 7 mps 722 mmHg 51%
15:00 +28°C° 0.2 mm 7 mps 722 mmHg 46%
16:00 +28°C° 0 mm 7 mps 722 mmHg 46%
17:00 +28°C° 0 mm 7 mps 722 mmHg 45%
18:00 +28°C° 0 mm 7 mps 722 mmHg 45%
19:00 +26°C° 0 mm 7 mps 722 mmHg 47%
20:00 +24°C° 0 mm 7 mps 723 mmHg 48%
21:00 +22°C° 0 mm 8 mps 723 mmHg 50%
22:00 +21°C° 0 mm 7 mps 724 mmHg 55%
23:00 +20°C° 0 mm 6 mps 724 mmHg 59%
Show more

We Need Your Consent

Meteoprog and our Service Providers may store and access personal data such as cookies, device identifiers or other similar technologies on your device and process such data to personalise content and ads, as well as provide social media features and to analyse the traffic.

  • Store and/or access information on your device

    Cookies, device identifiers or other information can be stored or accessed on your device for the purposes indicated above.

  • Personalised ads and content, ad and content measurement, audience insights, and products development

    Ads and content can be personalised based on a profile. More data can be added to better personalise ads and content. Ad and content performance can be measured. Insights about the audience who saw the ads and content can be derived. Such data can be used to develop or improve user’s experience, systems and software.

By clicking ‘I Agree’ you will allow the use of indicated cookies, device identifiers, web beacons or other similar technologies. Your settings can be changed in the browser on your device.

For certain purposes, legitimate interests may be relied on, rather than consent. You can read more about this in our Privacy and Cookie Policy.